Traverse City, MI

11:41 PM EST on February 21, 2017 (GMT -0500)
Cherry Capital

Weather History for KTVC - December, 2013

Change the Weather History Date:

Sunday, December 1, 2013

  Actual Average Record
Temperature  
Mean Temperature 35 °F 31 °F  
Max Temperature 37 °F 37 °F 63 °F (1962)
Min Temperature 32 °F 26 °F 1 °F (1936)
Degree Days  
Heating Degree Days 30 34  
Month to date heating degree days 30 34  
Since 1 July heating degree days 1521 1653  
Moisture  
Dew Point 30 °F    
Average Humidity 82    
Maximum Humidity 89    
Minimum Humidity 75    
Precipitation  
Precipitation 0.00 in 0.08 in 1.30 in (1985)
Month to date precipitation 0.00 0.08  
Year to date precipitation 35.15 30.64  
Snow  
Snow 0.00 in - - ()
Snow Depth 6.00 in    
Sea Level Pressure  
Sea Level Pressure 30.06 in    
Wind  
Wind Speed 3 mph (ENE)    
Max Wind Speed 8 mph    
Max Gust Speed 12 mph    
Visibility 6 miles    
Events      
T = Trace of Precipitation, MM = Missing Value Source: NWS Daily Summary

Daily Weather History Graph

Daily Weather History Graph

Search for Another Location

Airport or City:

Trip Planner

Search our weather history database for the weather conditions in past years. The results will help you decide how hot, cold, wet, or windy it might be!

Date:

Astronomy

Dec. 01, 2013 Rise Set
Actual Time 7:59 AM EST 5:03 PM EST
Civil Twilight 7:26 AM EST 5:35 PM EST
Nautical Twilight 6:50 AM EST 6:12 PM EST
Astronomical Twilight 6:15 AM EST 6:47 PM EST
Moon 6:13 AM EST (12/1) 4:15 PM EST (12/1)
Length of Visible Light 10h 09m
Length of Day
9h 03m
Waning Crescent, 2% of the Moon is Illuminated
Dec 1
Waning Crescent
Dec 2
New
Dec 9
First Quarter
Dec 17
Full
Dec 25
Last Quarter

Hourly Weather History & Observations

Time (EST) Temp. Windchill Dew Point Humidity Pressure Visibility Wind Dir Wind Speed Gust Speed Precip Events Conditions
12:43 AM 37.0 °F 33.3 °F 32.0 °F 82% 30.02 in 6.0 mi North 4.6 mph - N/A   Haze
12:53 AM 37.0 °F 32.4 °F 32.0 °F 82% 30.04 in 5.0 mi North 5.8 mph - N/A   Haze
1:53 AM 36.0 °F 31.1 °F 32.0 °F 86% 30.04 in 5.0 mi NE 5.8 mph - N/A   Overcast
2:53 AM 35.1 °F - 32.0 °F 89% 30.04 in 4.0 mi Calm Calm - N/A   Overcast
3:53 AM 35.1 °F - 32.0 °F 89% 30.05 in 4.0 mi Calm Calm - N/A   Overcast
4:53 AM 35.1 °F 30.1 °F 30.0 °F 82% 30.05 in 5.0 mi ENE 5.8 mph - N/A   Haze
5:20 AM 35.1 °F 30.1 °F 30.0 °F 82% 30.04 in 5.0 mi NE 5.8 mph - N/A   Haze
5:50 AM 35.6 °F 29.2 °F 30.2 °F 81% 30.04 in 6.0 mi NNE 8.1 mph - N/A   Haze
5:53 AM 35.1 °F 30.1 °F 30.0 °F 82% 30.06 in 6.0 mi NE 5.8 mph - N/A   Haze
6:53 AM 34.0 °F 31.0 °F 30.0 °F 85% 30.08 in 5.0 mi ESE 3.5 mph - N/A   Overcast
7:14 AM 34.0 °F - 30.0 °F 85% 30.06 in 5.0 mi Calm Calm - N/A   Overcast
7:53 AM 34.0 °F - 30.0 °F 85% 30.08 in 5.0 mi Calm Calm - N/A   Overcast
8:00 AM 34.0 °F - 30.0 °F 85% 30.06 in 5.0 mi Calm Calm - N/A   Overcast
8:53 AM 34.0 °F - 30.9 °F 89% 30.09 in 5.0 mi Calm Calm - N/A   Overcast
9:53 AM 34.0 °F 29.8 °F 30.0 °F 85% 30.10 in 4.0 mi East 4.6 mph - N/A   Overcast
10:00 AM 35.1 °F 32.2 °F 30.0 °F 82% 30.08 in 4.0 mi ENE 3.5 mph - N/A   Haze
10:41 AM 35.1 °F 31.0 °F 30.0 °F 82% 30.08 in 4.0 mi East 4.6 mph - N/A   Overcast
10:53 AM 35.1 °F 31.0 °F 30.0 °F 82% 30.11 in 4.0 mi ENE 4.6 mph - N/A   Overcast
11:53 AM 35.1 °F 31.0 °F 28.9 °F 78% 30.10 in 7.0 mi NE 4.6 mph - N/A   Overcast
12:53 PM 35.1 °F 30.1 °F 28.0 °F 76% 30.08 in 9.0 mi ENE 5.8 mph - N/A   Overcast
1:53 PM 35.1 °F - 28.0 °F 76% 30.07 in 9.0 mi Calm Calm - N/A   Overcast
2:53 PM 36.0 °F - 28.0 °F 73% 30.06 in 10.0 mi Calm Calm - N/A   Overcast
3:53 PM 35.1 °F - 28.9 °F 78% 30.06 in 9.0 mi Calm Calm - N/A   Overcast
4:53 PM 34.0 °F - 28.9 °F 82% 30.06 in 7.0 mi Calm Calm - N/A   Overcast
5:53 PM 34.0 °F - 28.9 °F 82% 30.05 in 9.0 mi Calm Calm - N/A   Overcast
6:53 PM 33.1 °F 30.0 °F 28.9 °F 85% 30.04 in 8.0 mi West 3.5 mph - N/A   Overcast
7:53 PM 33.1 °F - 28.9 °F 85% 30.04 in 8.0 mi Calm Calm - N/A   Overcast
8:53 PM 34.0 °F 31.0 °F 28.9 °F 82% 30.04 in 6.0 mi SSE 3.5 mph - N/A   Haze
9:53 PM 33.1 °F - 28.9 °F 85% 30.04 in 7.0 mi Calm Calm - N/A   Overcast
10:53 PM 33.1 °F 28.7 °F 28.9 °F 85% 30.02 in 7.0 mi ESE 4.6 mph - N/A   Overcast
11:53 PM 33.1 °F 28.7 °F 28.9 °F 85% 30.01 in 7.0 mi SE 4.6 mph - N/A   Overcast